Location: Unspecified
(0.0000°N, 0.0000°E)
Time: 03:17:15
(UTC+00:00)

N. Korean satellite - Pass Details

Date: 28 February 2021
Orbit: 451 x 503 km, 97.2° (Epoch: 24 February)

Event Time Altitude Azimuth Distance (km) Brightness Sun altitude
Rises 05:22:20 0° 357° (N) 2,528 10.1 -12.4°
Reaches altitude 10° 05:24:29 10° 348° (NNW) 1,661 9.1 -11.9°
Maximum altitude 05:27:47 36° 281° (W) 791 7.1 -11.1°
Drops below altitude 10° 05:31:09 10° 213° (SSW) 1,692 9.1 -10.2°
Sets 05:33:22 0° 204° (SSW) 2,584 10.1 -9.7°
